Content
SEND FEEDBACK

Daily
Averages
Monthly
Summary
United States of America

EL PASO, TEXAS


Home > North America > United States > Texas
Elevation: 3918 feet     Latitude: 31 48N     Longitude: 106 24W

WEATHER
 
SELECT A DAY
Number of Records: 171,817;   Date Range: 1/1/95 - 7/20/14
 
SHARE

PRINT THIS DATA

[ ← Previous Day ]
WEATHER ALMANAC - MAY 9, 2013
[ Next Day → ]
[ °C ]   °F
Weather ElementAverageHighLow
Temperature72.5 °F80.1 °F (2:51 pm)63 °F (3:51 am)
Dewpoint20.9 °F26.1 °F (8:51 am)16 °F (4:51 pm)
Humidity14.9 %21 % (6:51 am)9 % (4:51 pm)
Barometer29.81 in29.93 in (7:51 pm)29.73 in (6:51 pm)
Wind Speed7.7 mph19.6 mph (1:51 pm)
Wind Gust26.5 mph (1:51 pm)
Weather ElementAverage
Visibility10 mi
Wind DirectionSSE (170.9 °)

Weather ElementTotal
Precipitation---
Cooling Degree Days6.6 (Base 65)
Growing Degree Days21.6 (Base 50)
Averaged from 23 records on May 9, 2013
WEATHER CONDITIONS BREAKOUT
WIND DIRECTION BREAKOUT
WEATHER BY HOUR - MAY 9, 2013
[ °C ]   °F
Local TimeTemperatureDewpointHumidityBarometerVisibilityWind DirectionWind SpeedGust SpeedPrecipitationEventsConditions
1:51 AM66.9 °F17.1 °F15 %29.81 in10.0 miSW (230°)5.8 mphScattered Clouds
2:51 AM68.0 °F19.0 °F15 %29.80 in10.0 miWest (280°)9.2 mphScattered Clouds
3:51 AM63.0 °F19.0 °F18 %29.81 in10.0 miCalmPartly Cloudy
4:51 AM63.0 °F19.9 °F19 %29.82 in10.0 miCalmPartly Cloudy
5:51 AM66.0 °F23.0 °F20 %29.81 in10.0 miWNW (300°)10.4 mphPartly Cloudy
6:51 AM66.0 °F25.0 °F21 %29.83 in10.0 miWNW (290°)6.9 mphPartly Cloudy
7:51 AM68.0 °F25.0 °F20 %29.84 in10.0 miCalmScattered Clouds
8:51 AM70.0 °F26.1 °F19 %29.85 in10.0 miNW (310°)10.4 mphScattered Clouds
9:51 AM72.0 °F26.1 °F18 %29.84 in10.0 miWNW (300°)11.5 mphScattered Clouds
10:51 AM73.9 °F23.0 °F15 %29.84 in10.0 miVariable6.9 mphScattered Clouds
11:51 AM77.0 °F18.0 °F11 %29.82 in10.0 miWSW (250°)15.0 mph23.0 mphPartly Cloudy
12:51 PM79.0 °F19.0 °F11 %29.81 in10.0 miWSW (240°)16.1 mph24.2 mphPartly Cloudy
1:51 PM79.0 °F19.0 °F11 %29.81 in10.0 miWSW (240°)19.6 mph26.5 mphPartly Cloudy
2:51 PM80.1 °F19.0 °F10 %29.77 in10.0 miWest (260°)16.1 mph24.2 mphPartly Cloudy
3:51 PM80.1 °F19.9 °F11 %29.75 in10.0 miNW (310°)8.1 mph23.0 mphPartly Cloudy
4:51 PM80.1 °F16.0 °F9 %29.75 in10.0 miWest (270°)8.1 mphPartly Cloudy
5:51 PM79.0 °F19.0 °F11 %29.74 in10.0 miCalmPartly Cloudy
6:51 PM79.0 °F19.9 °F11 %29.73 in10.0 miNW (310°)11.5 mphScattered Clouds
7:51 PM77.0 °F19.4 °F12 %29.93 in10.0 miWNW (300°)8.1 mphScattered Clouds
8:51 PM73.9 °F21.9 °F14 %29.76 in10.0 miNorth (10°)4.6 mphScattered Clouds
9:51 PM71.1 °F21.9 °F16 %29.79 in10.0 miNNE (20°)5.8 mphScattered Clouds
10:51 PM70.0 °F21.9 °F16 %29.81 in10.0 miNorth (10°)3.5 mphMostly Cloudy
11:51 PM66.0 °F21.9 °F19 %29.81 in10.0 miCalmOvercast
Hourly data recorded from KELP, located miles away from El Paso, Texas







STORIES FROM OUR PARTNERS